GW1368 Weather Reports


time (UTC)temp
F
wind
direction
speed
knots
gust
knots
rain 1hr
in
rain 24hr
in
rain mn
in
humidity
%
barometer
mb
20260507174728 64 234 2.6 7.8 0.00 0.00 0.00 52 1013.9
20260507174228 65 226 1.7 6.1 0.00 0.00 0.00 51 1014.0
20260507173727 65 194 1.7 6.1 0.00 0.00 0.00 50 1014.1
20260507173224 65 347 1.7 6.1 0.00 0.00 0.00 51 1014.2
20260507172723 65 9 2.6 7.8 0.00 0.00 0.00 50 1014.2
20260507172224 65 266 1.7 7.8 0.00 0.00 0.00 49 1014.3
20260507171225 65 356 1.7 7.0 0.00 0.00 0.00 50 1014.4
20260507170224 64 288 2.6 6.1 0.00 0.00 0.00 52 1014.5
20260507165725 65 315 2.6 7.0 0.00 0.00 0.00 51 1014.6
20260507165225 65 300 1.7 7.0 0.00 0.00 0.00 51 1014.6
20260507163222 64 317 2.6 10.4 0.00 0.00 0.00 51 1014.9
20260507162722 64 132 2.6 7.8 0.00 0.00 0.00 51 1014.9
20260507161720 64 63 3.5 8.7 0.00 0.00 0.00 53 1015.1
20260507161219 64 229 3.5 8.7 0.00 0.00 0.00 52 1015.1
20260507160720 64 269 2.6 7.8 0.00 0.00 0.00 52 1015.0
20260507155719 63 289 1.7 7.8 0.00 0.00 0.00 53 1015.1
20260507154719 63 217 2.6 7.8 0.00 0.00 0.00 54 1015.3
20260507154221 62 219 2.6 7.8 0.00 0.00 0.00 53 1015.2
20260507153719 62 0 1.7 7.0 0.00 0.00 0.00 55 1015.3
20260507153220 62 212 1.7 7.0 0.00 0.00 0.00 55 1015.5
20260507152719 61 0 1.7 7.0 0.00 0.00 0.00 55 1015.3
20260507151214 60 208 2.6 7.8 0.00 0.00 0.00 58 1015.5
20260507150214 59 0 1.7 5.2 0.00 0.00 0.00 59 1015.7
20260507145710 59 256 1.7 6.1 0.00 0.00 0.00 59 1015.7
20260507144209 58 0 1.7 7.0 0.00 0.00 0.00 62 1015.8
20260507143710 57 272 1.7 7.0 0.00 0.00 0.00 61 1015.9
20260507143210 57 84 0.9 2.6 0.00 0.00 0.00 61 1015.9
20260507142210 56 0 1.7 5.2 0.00 0.00 0.00 63 1015.8
20260507141710 55 192 1.7 5.2 0.00 0.00 0.00 65 1015.8
20260507141209 55 257 1.7 6.1 0.00 0.00 0.00 65 1015.8
20260507140711 55 356 0.9 6.1 0.00 0.00 0.00 65 1016.0
20260507140208 54 226 0.9 6.1 0.00 0.00 0.00 64 1016.0
20260507135709 54 240 0.9 3.5 0.00 0.00 0.00 66 1015.9
20260507135207 53 91 1.7 4.3 0.00 0.00 0.00 67 1015.9
20260507134707 53 291 1.7 5.2 0.00 0.00 0.00 67 1015.9
20260507134206 53 240 1.7 5.2 0.00 0.00 0.00 68 1015.9
20260507133710 52 0 1.7 4.3 0.00 0.00 0.00 69 1015.9
20260507133155 52 206 1.7 4.3 0.00 0.00 0.00 70 1015.9
20260507132654 51 246 1.7 4.3 0.00 0.00 0.00 70 1016.0
20260507131639 51 128 1.7 3.5 0.00 0.00 0.00 73 1016.0
20260507130641 50 183 1.7 3.5 0.00 0.00 0.00 72 1016.1
20260507130139 50 211 1.7 3.5 0.00 0.00 0.00 73 1016.1
20260507125139 49 117 1.7 2.6 0.00 0.00 0.00 74 1016.2
20260507124139 48 189 1.7 3.5 0.00 0.00 0.00 74 1016.2
20260507123639 47 284 1.7 4.3 0.00 0.00 0.00 73 1016.2
20260507123140 47 189 1.7 4.3 0.00 0.00 0.00 74 1016.2
20260507122639 47 205 1.7 4.3 0.00 0.00 0.00 74 1016.2
20260507122140 47 215 1.7 4.3 0.00 0.00 0.00 74 1016.3
20260507121639 47 230 1.7 3.5 0.00 0.00 0.00 75 1016.2
20260507121126 46 199 1.7 3.5 0.00 0.00 0.00 74 1016.2
20260507120625 46 5 1.7 3.5 0.00 0.00 0.00 75 1016.2
20260507120124 46 242 0.9 3.5 0.00 0.00 0.00 75 1016.1
20260507114111 45 230 0.9 2.6 0.00 0.00 0.00 75 1016.0
20260507113610 45 215 0.9 3.5 0.00 0.00 0.00 75 1016.1
20260507113110 45 283 0.9 3.5 0.00 0.00 0.00 75 1016.1
20260507112112 45 165 0.9 2.6 0.00 0.00 0.00 74 1016.1
20260507111610 45 196 0.9 2.6 0.00 0.00 0.00 73 1016.1
20260507111111 45 224 0.9 2.6 0.00 0.00 0.00 73 1016.0
20260507110611 45 214 0.9 2.6 0.00 0.00 0.00 72 1016.0
20260507110110 45 248 0.9 2.6 0.00 0.00 0.00 73 1015.9
20260507105555 45 210 0.9 2.6 0.00 0.00 0.00 73 1015.8
20260507105055 45 0 0.9 2.6 0.00 0.00 0.00 74 1015.8
20260507104041 45 217 0.9 3.5 0.00 0.00 0.00 73 1015.9
20260507103542 45 240 0.9 3.5 0.00 0.00 0.00 73 1015.9
20260507102041 45 208 0.9 2.6 0.00 0.00 0.00 73 1016.0
20260507101541 45 0 0.9 2.6 0.00 0.00 0.00 72 1016.0
20260507101041 46 257 0.9 3.5 0.00 0.00 0.00 71 1016.0
20260507100542 46 195 1.7 3.5 0.00 0.00 0.00 71 1016.0
20260507100043 46 190 0.9 2.6 0.00 0.00 0.00 70 1016.0
20260507095541 47 185 0.9 2.6 0.00 0.00 0.00 70 1016.1
20260507095041 47 0 0.9 2.6 0.00 0.00 0.00 70 1016.1
20260507094528 47 176 0.9 2.6 0.00 0.00 0.00 69 1016.1
20260507094013 47 190 0.9 2.6 0.00 0.00 0.00 68 1016.1
20260507093512 47 0 0.9 3.5 0.00 0.00 0.00 68 1016.2
20260507093012 47 219 0.9 3.5 0.00 0.00 0.00 68 1016.2
20260507092511 47 0 0.9 2.6 0.00 0.00 0.00 68 1016.2
20260507092011 47 247 0.9 2.6 0.00 0.00 0.00 67 1016.2
20260507091513 47 0 0.9 2.6 0.00 0.00 0.00 66 1016.2
20260507091012 47 205 0.9 2.6 0.00 0.00 0.00 66 1016.3
20260507090012 47 0 0.9 2.6 0.00 0.00 0.00 64 1016.3
20260507085512 48 219 0.9 3.5 0.00 0.00 0.00 64 1016.3
20260507085013 48 209 0.9 3.5 0.00 0.00 0.00 62 1016.3
20260507084513 48 193 0.9 2.6 0.00 0.00 0.00 61 1016.3
20260507083513 48 284 0.9 3.5 0.00 0.00 0.00 61 1016.4
20260507083013 48 211 0.9 2.6 0.00 0.00 0.00 60 1016.4
20260507082513 48 0 0.9 2.6 0.00 0.00 0.00 59 1016.4
20260507082014 48 216 0.9 2.6 0.00 0.00 0.00 59 1016.5
20260507081512 48 0 0.9 4.3 0.00 0.00 0.00 60 1016.5
20260507080458 48 240 0.9 2.6 0.00 0.00 0.00 60 1016.4
20260507075957 48 244 0.9 1.7 0.00 0.00 0.00 59 1016.4
20260507075459 48 224 0.9 1.7 0.00 0.00 0.00 60 1016.4
20260507074958 48 0 0.9 2.6 0.00 0.00 0.00 59 1016.3
20260507074458 48 135 1.7 3.5 0.00 0.00 0.00 57 1016.4
20260507074000 48 185 1.7 3.5 0.00 0.00 0.00 58 1016.4
20260507072959 48 0 0.9 3.5 0.00 0.00 0.00 59 1016.5
20260507072500 48 0 0.9 2.6 0.00 0.00 0.00 58 1016.5
20260507071959 48 0 0.9 3.5 0.00 0.00 0.00 59 1016.6
20260507065957 48 219 0.9 5.2 0.00 0.00 0.00 59 1016.8
20260507065456 48 299 0.9 5.2 0.00 0.00 0.00 59 1016.9
20260507063450 49 216 0.9 3.5 0.00 0.00 0.00 58 1017.0
20260507062449 49 0 0.0 3.5 0.00 0.00 0.00 58 1017.1
20260507061945 49 227 0.0 3.5 0.00 0.00 0.00 59 1017.1
20260507061445 49 0 0.0 2.6 0.00 0.00 0.00 59 1017.1
20260507060946 49 184 0.9 2.6 0.00 0.00 0.00 60 1017.1
20260507060445 49 0 0.9 2.6 0.00 0.00 0.00 60 1017.1
20260507055945 49 209 0.9 3.5 0.00 0.00 0.00 61 1017.1
20260507055445 49 213 0.9 3.5 0.00 0.00 0.00 61 1017.1
20260507054945 49 254 0.9 2.6 0.00 0.00 0.00 61 1017.1
20260507054445 49 219 0.9 3.5 0.00 0.00 0.00 59 1017.1
20260507053945 49 217 0.9 3.5 0.00 0.00 0.00 61 1017.1
20260507052443 50 246 0.9 3.5 0.00 0.00 0.00 60 1017.1
20260507051943 50 0 0.9 3.5 0.00 0.01 0.00 59 1017.1
20260507051442 50 190 0.9 3.5 0.00 0.02 0.00 58 1017.1
20260507050940 50 204 0.9 3.5 0.00 0.02 0.00 58 1017.1
20260507050440 50 200 1.7 3.5 0.00 0.02 0.00 56 1017.1
20260507045939 50 232 0.9 3.5 0.00 0.02 0.02 57 1017.1
20260507045440 50 199 0.9 3.5 0.00 0.02 0.02 57 1017.1
20260507044941 50 0 0.0 2.6 0.00 0.02 0.02 59 1017.2
20260507044440 49 0 0.0 1.7 0.00 0.02 0.02 57 1017.1
20260507043940 49 0 0.0 1.7 0.00 0.02 0.02 59 1017.1
20260507043440 49 0 0.0 1.7 0.00 0.03 0.02 59 1017.1
20260507042940 50 0 0.0 1.7 0.00 0.03 0.02 59 1017.2
20260507042440 50 0 0.0 1.7 0.00 0.04 0.02 57 1017.1
20260507041441 50 0 0.0 1.7 0.00 0.05 0.02 55 1017.1
20260507040941 50 0 0.0 1.7 0.00 0.05 0.02 55 1017.2
20260507040441 49 0 0.0 0.9 0.00 0.05 0.02 54 1017.3
20260507035940 49 0 0.0 0.9 0.00 0.06 0.02 54 1017.3
20260507035438 49 0 0.0 0.9 0.00 0.06 0.02 55 1017.3
20260507034939 49 0 0.0 0.9 0.00 0.06 0.02 56 1017.3
20260507034438 49 0 0.0 0.9 0.00 0.06 0.02 56 1017.3
20260507033939 49 0 0.0 0.0 0.00 0.06 0.02 54 1017.4
20260507033438 49 0 0.0 1.7 0.00 0.06 0.02 55 1017.4
20260507032938 49 0 0.0 1.7 0.00 0.06 0.02 58 1017.4
20260507031938 49 0 0.0 1.7 0.00 0.06 0.02 56 1017.2
20260507031440 49 0 0.0 1.7 0.00 0.06 0.02 57 1017.2
20260507030436 49 145 0.0 1.7 0.00 0.06 0.02 55 1017.3
20260507025937 49 0 0.0 1.7 0.00 0.06 0.02 58 1017.3
20260507024435 49 0 0.0 0.9 0.00 0.06 0.02 56 1017.2
20260507023936 49 0 0.0 0.9 0.00 0.06 0.02 56 1017.1
20260507023433 49 0 0.0 0.9 0.00 0.06 0.02 56 1017.0
20260507022933 49 0 0.0 0.9 0.00 0.06 0.02 57 1017.1
20260507022433 49 0 0.0 0.0 0.00 0.06 0.02 58 1017.0
20260507021933 49 0 0.0 0.9 0.00 0.06 0.02 61 1017.0
20260507020433 50 0 0.0 0.9 0.00 0.06 0.02 57 1016.8
20260507015933 50 0 0.0 1.7 0.00 0.06 0.02 57 1016.8
20260507015434 50 0 0.0 1.7 0.00 0.06 0.02 52 1016.8
20260507014933 51 0 0.0 0.9 0.00 0.06 0.02 54 1016.8
20260507014434 51 0 0.0 0.0 0.00 0.06 0.02 55 1016.7
20260507013934 51 0 0.0 0.0 0.00 0.06 0.02 52 1016.7
20260507013433 51 0 0.0 0.0 0.00 0.06 0.02 51 1016.7
20260507012934 51 0 0.0 0.0 0.00 0.06 0.02 50 1016.7
20260507011431 53 0 0.0 0.0 0.00 0.06 0.02 46 1016.6
20260507010931 53 0 0.0 0.0 0.00 0.06 0.02 45 1016.5
20260507010430 54 0 0.0 0.0 0.00 0.06 0.02 46 1016.5
20260507005931 54 0 0.0 0.0 0.00 0.06 0.02 45 1016.5
20260507005431 55 0 0.0 0.0 0.00 0.06 0.02 44 1016.5
20260507004931 55 0 0.0 0.0 0.00 0.06 0.02 44 1016.5
20260507004431 56 0 0.0 0.0 0.00 0.06 0.02 43 1016.6
20260507003931 56 0 0.0 0.0 0.00 0.06 0.02 46 1016.5
20260507003432 57 0 0.0 0.0 0.00 0.06 0.02 45 1016.6
20260507002931 57 0 0.0 0.9 0.00 0.06 0.02 42 1016.5
20260507002431 58 0 0.0 3.5 0.00 0.06 0.02 39 1016.5
20260507001429 58 313 0.9 3.5 0.00 0.06 0.02 36 1016.5
20260507000930 58 292 0.9 3.5 0.00 0.06 0.02 36 1016.5
20260507000430 58 0 0.9 5.2 0.00 0.06 0.02 38 1016.5
20260506235930 59 2 0.9 5.2 0.00 0.06 0.02 35 1016.5
20260506235429 59 0 0.9 3.5 0.00 0.06 0.02 36 1016.5
20260506234928 60 322 0.9 3.5 0.00 0.06 0.02 34 1016.5
20260506234431 60 65 0.9 3.5 0.00 0.06 0.02 34 1016.6
20260506233929 61 65 0.9 6.1 0.00 0.06 0.02 34 1016.6
20260506233431 61 1 1.7 6.1 0.00 0.06 0.02 33 1016.6
20260506232927 62 28 1.7 6.1 0.00 0.06 0.02 33 1016.5
20260506232427 61 136 1.7 5.2 0.00 0.06 0.02 33 1016.5
20260506231923 62 339 1.7 5.2 0.00 0.06 0.02 32 1016.6
20260506231424 62 347 1.7 6.1 0.00 0.06 0.02 32 1016.5
20260506230920 63 338 1.7 6.1 0.00 0.06 0.02 31 1016.6
20260506225922 63 43 0.9 3.5 0.00 0.06 0.02 33 1016.6
20260506225422 64 0 0.0 3.5 0.00 0.06 0.02 32 1016.5
20260506224922 63 0 0.9 3.5 0.00 0.06 0.02 35 1016.6
20260506224423 63 199 0.9 6.1 0.00 0.06 0.02 34 1016.5
20260506223922 63 0 1.7 6.1 0.00 0.06 0.02 32 1016.6
20260506222422 62 336 1.7 5.2 0.00 0.06 0.02 34 1016.6
20260506221919 62 318 1.7 6.1 0.00 0.06 0.02 35 1016.6
20260506221421 62 341 1.7 6.1 0.00 0.06 0.02 34 1016.7
20260506220917 62 322 1.7 6.1 0.00 0.06 0.02 33 1016.7
20260506220416 62 313 2.6 6.1 0.00 0.06 0.02 33 1016.7
20260506215916 62 359 2.6 7.0 0.00 0.06 0.02 34 1016.7
20260506215416 62 293 2.6 7.8 0.00 0.06 0.02 33 1016.7
20260506214913 62 321 2.6 7.8 0.00 0.06 0.02 33 1016.6
20260506214413 62 58 2.6 7.0 0.00 0.06 0.02 34 1016.8
20260506213913 62 327 2.6 7.0 0.00 0.06 0.02 35 1016.8
20260506212914 62 349 1.7 6.1 0.00 0.06 0.02 33 1017.0
20260506212413 62 45 1.7 7.0 0.00 0.06 0.02 34 1017.0
20260506211913 62 0 1.7 7.0 0.00 0.06 0.02 31 1017.0
20260506210913 62 330 2.6 7.8 0.00 0.06 0.02 35 1017.2
20260506210410 63 345 1.7 7.8 0.00 0.06 0.02 36 1017.3
20260506205910 63 0 1.7 5.2 0.00 0.06 0.02 37 1017.3
20260506205409 63 28 1.7 6.1 0.00 0.06 0.02 35 1017.5
20260506204907 62 0 2.6 7.8 0.00 0.06 0.02 37 1017.5
20260506204404 62 22 1.7 7.8 0.00 0.06 0.02 37 1017.6
20260506203904 62 312 1.7 6.1 0.00 0.06 0.02 37 1017.6
20260506203405 62 0 1.7 5.2 0.00 0.06 0.02 35 1017.7
20260506202911 62 85 1.7 4.3 0.00 0.06 0.02 34 1017.7
20260506202405 62 337 1.7 6.1 0.00 0.06 0.02 34 1017.8
20260506201905 62 35 2.6 7.0 0.00 0.06 0.02 33 1017.8
20260506201405 62 323 1.7 7.0 0.00 0.06 0.02 34 1017.8
20260506200905 62 358 1.7 7.8 0.00 0.06 0.02 34 1017.9
20260506195905 62 0 1.7 5.2 0.00 0.06 0.02 35 1017.9
20260506194402 61 113 1.7 6.1 0.00 0.06 0.02 34 1018.0
20260506193904 61 59 1.7 6.1 0.00 0.06 0.02 33 1018.1
20260506193403 61 41 1.7 5.2 0.00 0.06 0.02 33 1018.0
20260506192902 60 0 2.6 6.1 0.00 0.06 0.02 38 1018.0
20260506191900 60 36 1.7 7.0 0.00 0.06 0.02 38 1018.1
20260506190900 59 46 2.6 7.8 0.00 0.06 0.02 34 1018.1
20260506185900 59 45 1.7 7.8 0.00 0.06 0.02 41 1018.1
20260506185357 60 19 1.7 7.8 0.00 0.06 0.02 37 1018.2
20260506184855 60 329 1.7 7.0 0.00 0.06 0.02 36 1018.3
20260506184356 59 0 2.6 7.0 0.00 0.06 0.02 36 1018.3
20260506183850 60 321 1.7 6.1 0.00 0.06 0.02 38 1018.4
20260506183348 59 57 1.7 5.2 0.00 0.06 0.02 37 1018.4
20260506182848 59 10 1.7 6.1 0.00 0.06 0.02 37 1018.5
20260506182349 59 19 1.7 6.1 0.00 0.06 0.02 41 1018.6
20260506181351 59 0 0.9 5.2 0.00 0.06 0.02 35 1018.8
20260506180851 59 85 1.7 6.1 0.00 0.06 0.02 41 1018.7
20260506180403 59 320 1.7 6.1 0.00 0.06 0.02 35 1018.7
20260506175852 58 59 1.7 5.2 0.00 0.06 0.02 39 1018.8
20260506175351 57 13 1.7 5.2 0.00 0.06 0.02 36 1018.8